Location: Ammerl�gen
(47.2167°N, 9.6000°E)
Time: 02:46:37
(UTC+00:00)

ISS - Pass Details

Date: 01 October 2021
Orbit: 417 x 423 km, 51.6° (Epoch: 25 October)

Event Time Altitude Azimuth Distance (km) Brightness Sun altitude
Rises 18:16:23 0° 294° (WNW) 2,367 1.7 -13.6°
Reaches altitude 10° 18:18:29 10° 296° (WNW) 1,502 0.3 -14.0°
Maximum altitude 18:21:51 82° 23° (NNE) 428 -3.8 -14.5°
Enters shadow 18:23:18 32° 109° (ESE) 747 -3.1 -14.8°
